[[{"header":{"parameterUnit":"m.s-1","parameterCategory":2,"la1":30.2991,"la2":30.254,"lo1":-89.0895,"lo2":-89.0444,"dx":0.0017,"dy":0.0017,"nx":28,"ny":28,"refTime":"2022-11-07T03:00:00:Z","depth":"0","parameterNumber":2,"parameterNumberName":"U-component_of_CURRENTS"},"data":[0,0,0,0,0,0,0,0,0,0,0,0,0,0,0,0,0,0,0,0,0,0,0,0,0,0,0,0,0,0,0,0,0,0,0,0,0,0,0,0,0,0,0,0,0,0,0,0,0,0,0,0,0,0,0,0,0,0,-0.2131,-0.2131,0,-0.2112,-0.2112,-0.2112,-0.2113,-0.2113,-0.2114,-0.2114,-0.1988,-0.1985,-0.1981,0,0,0,0,0,0,0,0,0,0,0,0,0,-0.2174,-0.2173,-0.2131,-0.2131,-0.213,-0.2113,-0.2112,-0.2112,-0.2113,-0.2113,-0.2114,-0.2114,-0.1989,-0.1985,-0.1981,0,0,0,0,0,0,0,0,0,0,0,0,0,-0.2157,-0.2173,-0.2131,-0.2128,-0.2127,-0.2113,-0.2112,-0.2112,-0.2113,-0.2113,-0.2114,-0.2114,-0.1991,-0.1985,-0.198,-0.1943,0,0,-0.1964,-0.1962,0,0,0,0,0,0,0,0,-0.2158,-0.2155,-0.2129,-0.2128,-0.2127,-0.2114,-0.2081,-0.205,-0.2113,-0.212,-0.2114,-0.2114,-0.2019,-0.2012,-0.2011,-0.1938,-0.1932,-0.1964,-0.1961,-0.1958,-0.1957,0,0,0,0,0,0,0,-0.2159,-0.2156,-0.2125,-0.2128,-0.2127,-0.2129,-0.2127,-0.2076,-0.2067,-0.2119,-0.2119,-0.2115,-0.2018,-0.2016,-0.2008,-0.193,-0.1964,-0.1959,-0.1956,-0.1954,-0.1833,-0.1833,0,0,0,0,0,0,-0.2158,-0.2157,-0.2125,-0.2124,-0.2142,-0.2128,-0.2126,-0.2119,-0.207,-0.2064,-0.2115,-0.2115,-0.2025,-0.2014,-0.2003,-0.1972,-0.1958,-0.1954,-0.1951,-0.1833,-0.1833,-0.1833,0,0,0,0,0,0,-0.2159,-0.2155,-0.2126,-0.214,-0.2136,-0.2127,-0.212,-0.2119,-0.2116,-0.2068,-0.2059,-0.2113,-0.2025,-0.201,-0.1963,-0.1967,-0.1951,-0.1946,-0.1833,-0.1833,-0.1833,-0.1899,0,0,0,0,0,0,-0.216,-0.2155,-0.2153,-0.2139,-0.2135,-0.212,-0.2119,-0.2118,-0.2113,-0.2113,-0.2063,-0.2052,-0.2024,-0.1971,-0.1958,-0.1959,-0.1942,-0.1833,-0.1833,-0.1833,-0.1897,-0.1902,-0.1905,0,0,0,0,0,-0.2162,-0.2165,-0.2153,-0.2149,-0.213,-0.212,-0.2118,-0.2114,-0.2112,-0.2112,-0.208,-0.2054,-0.1961,-0.1966,-0.1951,-0.1951,-0.1833,-0.1833,-0.1833,-0.1896,-0.1901,-0.1905,0,0,0,0,0,0,-0.2194,-0.2165,-0.2151,-0.2148,-0.2132,-0.2119,-0.2123,-0.2112,-0.209,-0.2089,-0.2045,-0.2031,-0.1994,-0.1958,-0.1965,-0.1916,-0.1895,-0.1892,-0.1948,-0.1952,-0.1956,-0.1984,-0.1938,0,0,0,0,0,-0.2194,-0.2191,-0.2158,-0.2162,-0.2149,-0.2133,-0.2128,-0.2121,-0.2099,-0.2091,-0.2057,-0.2018,-0.198,-0.1956,-0.1917,-0.1881,-0.1875,-0.1872,-0.1876,-0.188,-0.1892,-0.1886,-0.1891,-0.1833,-0.1833,-0.1833,0,0,-0.2216,-0.2196,-0.2198,-0.2168,-0.2158,-0.2151,-0.2132,-0.2127,-0.2126,-0.2076,-0.2064,-0.2025,-0.1973,-0.1945,-0.1924,-0.1915,-0.1896,-0.188,-0.1883,-0.1893,-0.1886,-0.1892,-0.1898,-0.1832,-0.1832,-0.1832,0,0,-0.2256,-0.2229,-0.2234,-0.2216,-0.219,-0.2172,-0.2167,-0.2144,-0.2136,-0.2111,-0.2081,-0.2049,-0.1987,-0.1963,-0.1939,-0.1936,-0.1917,-0.1918,-0.1959,-0.1953,-0.1959,-0.1963,-0.1982,-0.1987,-0.1921,-0.1921,-0.1921,0,-0.2281,-0.2277,-0.2238,-0.2234,-0.2228,-0.2181,-0.2187,-0.2168,-0.2137,-0.2131,-0.2114,-0.205,-0.2002,-0.1977,-0.198,-0.1947,-0.1949,-0.1948,-0.1961,-0.1966,-0.1969,-0.1987,-0.1992,-0.1924,-0.1924,-0.1923,-0.1923,0,-0.2321,-0.2313,-0.2317,-0.2291,-0.2277,-0.2276,-0.2235,-0.222,-0.2197,-0.218,-0.2151,-0.2097,-0.2063,-0.204,-0.2007,-0.2005,-0.2002,-0.1969,-0.1957,-0.198,-0.1996,-0.2001,-0.1929,-0.1928,-0.1927,-0.1926,0,0,-0.2385,-0.2351,-0.2352,-0.2347,-0.2306,-0.23,-0.2288,-0.2265,-0.2265,-0.2227,-0.2232,-0.217,-0.2145,-0.2116,-0.2071,-0.2062,-0.2088,-0.2032,-0.2031,-0.2065,-0.21,-0.2138,-0.2146,-0.206,-0.2061,-0.2062,-0.2108,0,-0.2428,-0.2435,-0.2405,-0.2416,-0.241,-0.2365,-0.2364,-0.2337,-0.2304,-0.2292,-0.2241,-0.2219,-0.2171,-0.2155,-0.2141,-0.2092,-0.21,-0.208,-0.206,-0.206,-0.2102,-0.2152,-0.2084,-0.2123,-0.2113,-0.2113,-0.2114,0,-0.2472,-0.2466,-0.2481,-0.2468,-0.2464,-0.2464,-0.2445,-0.2436,-0.2398,-0.2378,-0.2347,-0.23,-0.2274,-0.2229,-0.2194,-0.2184,-0.2157,-0.2126,-0.2127,-0.2143,-0.2106,-0.2093,-0.2132,-0.1969,-0.2121,-0.212,-0.212,0,-0.2531,-0.2522,-0.2536,-0.253,-0.2504,-0.251,-0.25,-0.2468,-0.2464,-0.2429,-0.2427,-0.238,-0.2359,-0.2319,-0.2248,-0.2225,-0.222,-0.2176,-0.2193,-0.2196,-0.2126,-0.2121,-0.2016,-0.2173,-0.2173,-0.2173,-0.2173,0,-0.2584,-0.2593,-0.2563,-0.257,-0.259,-0.256,-0.2575,-0.2557,-0.254,-0.2541,-0.2478,-0.2469,-0.2379,-0.235,-0.229,-0.227,-0.2257,-0.2226,-0.2216,-0.2149,-0.2146,-0.199,-0.1907,-0.2175,-0.2174,-0.2174,-0.2174,0,-0.2641,-0.2623,-0.2629,-0.2613,-0.2614,-0.2625,-0.2625,-0.2633,-0.2614,-0.2615,-0.2609,-0.2548,-0.2506,-0.2433,-0.2365,-0.2336,-0.2231,-0.2293,-0.2238,-0.2222,-0.2104,-0.2028,-0.2012,-0.1968,-0.2339,-0.234,-0.2341,0,-0.2669,-0.268,-0.2666,-0.267,-0.2663,-0.2673,-0.2686,-0.2671,-0.2673,-0.2657,-0.2664,-0.2626,-0.2586,-0.2526,-0.247,-0.242,-0.2257,-0.2316,-0.2262,-0.2114,-0.202,-0.2007,-0.1969,-0.2194,-0.2193,-0.2193,-0.2193,0,-0.2714,-0.2704,-0.2702,-0.2713,-0.2721,-0.2733,-0.2746,-0.275,-0.273,-0.2731,-0.2712,-0.2685,-0.2652,-0.2575,-0.2526,-0.2445,-0.2205,-0.2317,-0.2149,-0.1907,-0.1896,-0.1841,-0.216,-0.2192,-0.2192,-0.2192,-0.2192,-0.2192,-0.2732,-0.2734,-0.2726,-0.2723,-0.2751,-0.276,-0.2724,-0.2744,-0.2736,-0.2684,-0.2732,-0.2626,-0.2564,-0.2498,-0.2449,-0.2221,-0.2259,-0.2065,-0.1992,-0.2001,-0.1934,-0.2287,-0.2315,-0.2316,-0.2317,-0.2317,-0.2318,0,-0.2707,-0.2718,-0.2737,-0.2714,-0.2718,-0.2741,-0.273,-0.2649,-0.2594,-0.2587,-0.2574,-0.2404,-0.2333,-0.2196,-0.2043,-0.1896,-0.186,-0.1724,-0.1614,-0.1597,-0.1875,-0.1838,-0.1778,-0.1778,-0.1778,-0.1779,-0.1779,-0.1779,-0.2695,-0.2677,-0.2668,-0.2647,-0.2649,-0.2552,-0.2505,-0.242,-0.2337,-0.217,-0.2032,-0.1989,-0.1772,-0.1666,-0.1439,-0.1397,-0.1267,-0.1279,-0.1247,-0.1316,-0.1339,-0.1361,-0.1305,-0.1134,-0.1133,-0.0969,-0.0966,-0.0964]},{"header":{"parameterUnit":"m.s-1","parameterCategory":2,"la1":30.2991,"la2":30.254,"lo1":-89.0895,"lo2":-89.0444,"dx":0.0017,"dy":0.0017,"nx":28,"ny":28,"refTime":"2022-11-07T03:00:00:Z","depth":"0","parameterNumber":3,"parameterNumberName":"V-component_of_CURRENTS"},"data":[0,0,0,0,0,0,0,0,0,0,0,0,0,0,0,0,0,0,0,0,0,0,0,0,0,0,0,0,0,0,0,0,0,0,0,0,0,0,0,0,0,0,0,0,0,0,0,0,0,0,0,0,0,0,0,0,0,0,-0.0248,-0.0248,0,-0.0186,-0.0186,-0.0185,-0.0177,-0.0178,-0.0179,-0.0179,-0.0101,-0.0099,-0.0096,0,0,0,0,0,0,0,0,0,0,0,0,0,-0.033,-0.0328,-0.0249,-0.0248,-0.0247,-0.0186,-0.0186,-0.0185,-0.0177,-0.0178,-0.0179,-0.018,-0.0102,-0.0099,-0.0096,0,0,0,0,0,0,0,0,0,0,0,0,0,-0.0283,-0.0328,-0.0249,-0.0236,-0.0235,-0.0187,-0.0186,-0.0184,-0.0177,-0.0178,-0.0179,-0.018,-0.0103,-0.0099,-0.0095,-0.0051,0,0,-0.0083,-0.0081,0,0,0,0,0,0,0,0,-0.0286,-0.028,-0.0239,-0.0237,-0.0235,-0.0191,-0.0186,-0.0139,-0.0177,-0.0199,-0.0179,-0.018,-0.0129,-0.0123,-0.0109,-0.0048,-0.0044,-0.0083,-0.008,-0.0079,-0.0078,0,0,0,0,0,0,0,-0.0289,-0.0283,-0.0224,-0.0238,-0.0236,-0.0223,-0.0218,-0.0177,-0.0159,-0.0197,-0.0196,-0.0189,-0.0128,-0.0113,-0.0107,-0.0043,-0.0083,-0.0079,-0.0077,-0.0075,0.002,0.002,0,0,0,0,0,0,-0.0298,-0.0286,-0.0226,-0.0222,-0.0264,-0.0221,-0.0215,-0.0204,-0.0159,-0.0154,-0.0189,-0.0189,-0.0119,-0.0112,-0.0104,-0.0091,-0.0079,-0.0075,-0.0073,0.0019,0.002,0.002,0,0,0,0,0,0,-0.03,-0.0293,-0.0228,-0.0253,-0.0244,-0.0219,-0.0206,-0.0202,-0.0191,-0.0154,-0.0148,-0.0183,-0.012,-0.011,-0.0075,-0.0086,-0.0073,-0.007,0.0019,0.0019,0.002,-0.0036,0,0,0,0,0,0,-0.0302,-0.0294,-0.0288,-0.0253,-0.0243,-0.0209,-0.0205,-0.02,-0.0186,-0.0186,-0.0146,-0.014,-0.012,-0.0081,-0.0071,-0.008,-0.0066,0.0019,0.0019,0.002,-0.0035,-0.0038,-0.0041,0,0,0,0,0,-0.0305,-0.0297,-0.0288,-0.028,-0.0236,-0.0209,-0.0202,-0.0187,-0.0185,-0.0181,-0.0154,-0.0141,-0.0073,-0.0077,-0.0066,-0.0074,0.0019,0.0019,0.002,-0.0033,-0.0037,-0.0041,0,0,0,0,0,0,-0.0332,-0.0294,-0.0284,-0.0265,-0.0242,-0.0208,-0.0201,-0.0186,-0.0161,-0.0162,-0.0129,-0.0121,-0.01,-0.007,-0.0076,-0.0046,-0.0028,-0.0026,-0.0073,-0.0076,-0.0079,-0.0092,-0.0063,0,0,0,0,0,-0.0333,-0.0315,-0.0282,-0.0267,-0.0257,-0.0228,-0.0214,-0.0203,-0.0176,-0.0166,-0.0137,-0.0108,-0.0086,-0.0069,-0.0042,-0.0012,-0.0001,-0.0012,-0.0016,-0.0019,-0.0021,-0.0016,-0.0019,0.0021,0.0021,0.0021,0,0,-0.0341,-0.0316,-0.0308,-0.0271,-0.0253,-0.0242,-0.0222,-0.0205,-0.0199,-0.0159,-0.0139,-0.0115,-0.0081,-0.0062,-0.0049,-0.0039,-0.0025,-0.0018,-0.0021,-0.0022,-0.0016,-0.002,-0.0023,0.0021,0.0021,0.0021,0,0,-0.0351,-0.0325,-0.0318,-0.0298,-0.027,-0.0251,-0.0248,-0.0214,-0.0204,-0.0175,-0.0158,-0.0139,-0.0088,-0.0078,-0.0064,-0.0062,-0.0044,-0.0052,-0.0075,-0.007,-0.0074,-0.0077,-0.0076,-0.0079,-0.0051,-0.0051,-0.0051,0,-0.0369,-0.0346,-0.0313,-0.0302,-0.0291,-0.026,-0.0257,-0.0238,-0.0197,-0.0187,-0.0178,-0.0124,-0.0101,-0.0087,-0.0095,-0.0072,-0.0064,-0.0067,-0.0077,-0.008,-0.0082,-0.008,-0.0082,-0.0054,-0.0054,-0.0053,-0.0053,0,-0.0371,-0.0357,-0.0352,-0.0328,-0.0311,-0.0302,-0.0275,-0.0259,-0.024,-0.0219,-0.0197,-0.0164,-0.0134,-0.0129,-0.0111,-0.0114,-0.0103,-0.0087,-0.0073,-0.009,-0.0086,-0.0087,-0.0058,-0.0057,-0.0056,-0.0055,0,0,-0.041,-0.0365,-0.0365,-0.0359,-0.0325,-0.0314,-0.0302,-0.0281,-0.0274,-0.0242,-0.0231,-0.0205,-0.0185,-0.0169,-0.0147,-0.0144,-0.0161,-0.0125,-0.0123,-0.0135,-0.0154,-0.0196,-0.0201,-0.0148,-0.0148,-0.0149,-0.0149,0,-0.0429,-0.042,-0.0386,-0.0384,-0.0381,-0.0346,-0.0336,-0.0312,-0.0286,-0.0266,-0.024,-0.022,-0.0201,-0.019,-0.0186,-0.0161,-0.0165,-0.0163,-0.0126,-0.0125,-0.017,-0.0205,-0.016,-0.0161,-0.015,-0.015,-0.015,0,-0.0446,-0.0436,-0.0439,-0.0412,-0.0407,-0.0401,-0.0379,-0.0363,-0.0327,-0.0305,-0.028,-0.025,-0.0237,-0.0221,-0.0199,-0.0196,-0.0184,-0.017,-0.0169,-0.0189,-0.017,-0.0139,-0.0163,-0.0031,-0.0152,-0.0152,-0.0151,0,-0.0495,-0.0474,-0.0479,-0.047,-0.0437,-0.0434,-0.0417,-0.0381,-0.0371,-0.0332,-0.0321,-0.0285,-0.0274,-0.0249,-0.0223,-0.0207,-0.0205,-0.0176,-0.0205,-0.0207,-0.0152,-0.015,-0.0054,-0.0175,-0.0175,-0.0175,-0.0175,0,-0.0528,-0.0534,-0.0504,-0.0508,-0.0519,-0.0475,-0.0476,-0.045,-0.0414,-0.0417,-0.035,-0.0352,-0.0282,-0.0268,-0.0237,-0.0236,-0.0218,-0.0222,-0.0216,-0.0172,-0.0171,-0.0041,0.0022,-0.0175,-0.0175,-0.0175,-0.0175,0,-0.0584,-0.0561,-0.0573,-0.0549,-0.0543,-0.0556,-0.0527,-0.0528,-0.0478,-0.048,-0.0472,-0.0407,-0.0389,-0.0333,-0.0295,-0.0268,-0.0195,-0.0258,-0.0218,-0.0209,-0.0119,-0.0061,-0.0019,0.0025,-0.0282,-0.0283,-0.0284,0,-0.061,-0.0621,-0.0619,-0.0641,-0.0636,-0.0636,-0.064,-0.058,-0.0578,-0.0531,-0.0545,-0.0507,-0.051,-0.0458,-0.0385,-0.0341,-0.0241,-0.0276,-0.0247,-0.0123,-0.0053,-0.0031,0.0006,-0.0187,-0.0187,-0.0187,-0.0187,0,-0.0673,-0.0676,-0.0692,-0.0734,-0.0752,-0.0758,-0.0752,-0.0755,-0.0695,-0.0696,-0.0702,-0.0696,-0.0612,-0.0537,-0.0453,-0.0404,-0.0178,-0.028,-0.0142,0.0023,0.0048,0.0097,-0.0177,-0.0188,-0.0188,-0.0188,-0.0188,-0.0188,-0.0731,-0.0773,-0.0802,-0.0847,-0.0869,-0.0892,-0.0901,-0.0894,-0.0908,-0.0883,-0.0869,-0.0788,-0.0624,-0.05,-0.0442,-0.0189,-0.0222,-0.0095,-0.0038,-0.0031,0.0018,-0.0283,-0.0299,-0.03,-0.03,-0.0301,-0.0301,0,-0.0813,-0.0863,-0.0912,-0.0971,-0.1019,-0.099,-0.0988,-0.0972,-0.1012,-0.0917,-0.0935,-0.0672,-0.0549,-0.0304,-0.0025,0.0082,0.012,0.0163,0.0266,0.0289,0.005,0.0063,0.0113,0.0113,0.0113,0.0113,0.0113,0.0113,-0.0867,-0.095,-0.0982,-0.1101,-0.1133,-0.1161,-0.1159,-0.111,-0.0995,-0.0799,-0.0565,-0.0397,-0.0035,0.0208,0.0463,0.0461,0.0578,0.0523,0.0566,0.049,0.0473,0.0457,0.0487,0.0625,0.0625,0.0814,0.0817,0.0818]}],[{"header":{"parameterUnit":"m.s-1","parameterCategory":2,"la1":30.2991,"la2":30.254,"lo1":-89.0895,"lo2":-89.0444,"dx":0.0017,"dy":0.0017,"nx":28,"ny":28,"refTime":"2022-11-07T03:00:00:Z","depth":"2","parameterNumber":2,"parameterNumberName":"U-component_of_CURRENTS"},"data":[0,0,0,0,0,0,0,0,0,0,0,0,0,0,0,0,0,0,0,0,0,0,0,0,0,0,0,0,0,0,0,0,0,0,0,0,0,0,0,0,0,0,0,0,0,0,0,0,0,0,0,0,0,0,0,0,0,0,-0.1153,-0.1154,0,-0.1031,-0.1027,-0.1024,-0.1032,-0.1036,-0.104,-0.1044,-0.0996,-0.0991,-0.0986,0,0,0,0,0,0,0,0,0,0,0,0,0,-0.0999,-0.1002,-0.1153,-0.1154,-0.1155,-0.1031,-0.1027,-0.1023,-0.1031,-0.1036,-0.1042,-0.1046,-0.0998,-0.0992,-0.0986,0,0,0,0,0,0,0,0,0,0,0,0,0,-0.0967,-0.1003,-0.1153,-0.1163,-0.1164,-0.1032,-0.1027,-0.1022,-0.103,-0.1037,-0.1043,-0.1049,-0.1,-0.0993,-0.0985,-0.0813,0,0,-0.0961,-0.0958,0,0,0,0,0,0,0,0,-0.0969,-0.0969,-0.1161,-0.1162,-0.1164,-0.1076,-0.0956,-0.0965,-0.1029,-0.1054,-0.1044,-0.1052,-0.1042,-0.1031,-0.0957,-0.0811,-0.0809,-0.0961,-0.0956,-0.0953,-0.0951,0,0,0,0,0,0,0,-0.0971,-0.0972,-0.1079,-0.1162,-0.1164,-0.104,-0.1043,-0.0953,-0.0996,-0.1052,-0.1059,-0.1084,-0.1041,-0.0964,-0.0956,-0.0808,-0.0961,-0.0954,-0.0949,-0.0946,-0.0796,-0.0797,0,0,0,0,0,0,-0.1052,-0.0977,-0.1083,-0.1078,-0.1108,-0.1041,-0.1043,-0.1077,-0.0996,-0.0996,-0.1079,-0.1086,-0.0974,-0.0965,-0.0955,-0.0969,-0.0953,-0.0946,-0.0941,-0.0796,-0.0796,-0.0797,0,0,0,0,0,0,-0.1049,-0.1063,-0.1089,-0.1043,-0.1042,-0.1043,-0.1076,-0.1072,-0.1053,-0.102,-0.1018,-0.1079,-0.0978,-0.0966,-0.0934,-0.0961,-0.0942,-0.0935,-0.0795,-0.0796,-0.0797,-0.0855,0,0,0,0,0,0,-0.1045,-0.1062,-0.1058,-0.105,-0.1049,-0.1042,-0.1073,-0.1066,-0.1069,-0.1076,-0.1016,-0.1015,-0.0982,-0.0946,-0.0927,-0.095,-0.0929,-0.0794,-0.0795,-0.0796,-0.0853,-0.0858,-0.0863,0,0,0,0,0,-0.1039,-0.1023,-0.1058,-0.107,-0.1063,-0.1044,-0.1026,-0.1028,-0.1064,-0.1034,-0.1025,-0.102,-0.0943,-0.0938,-0.0916,-0.0937,-0.0793,-0.0795,-0.0796,-0.085,-0.0857,-0.0863,0,0,0,0,0,0,-0.0952,-0.1025,-0.1063,-0.1072,-0.1083,-0.1057,-0.1032,-0.1039,-0.099,-0.1025,-0.0988,-0.0981,-0.0974,-0.0934,-0.0931,-0.0903,-0.088,-0.0877,-0.093,-0.0935,-0.094,-0.0957,-0.0923,0,0,0,0,0,-0.0939,-0.0954,-0.1007,-0.1015,-0.1038,-0.1037,-0.1019,-0.1041,-0.1029,-0.1015,-0.0974,-0.0956,-0.0938,-0.0929,-0.0885,-0.083,-0.0824,-0.0844,-0.085,-0.0854,-0.0855,-0.0848,-0.0853,-0.0802,-0.0802,-0.0802,0,0,-0.0911,-0.0955,-0.0962,-0.0997,-0.101,-0.1015,-0.1036,-0.1051,-0.1051,-0.1014,-0.0973,-0.0956,-0.0929,-0.0899,-0.0894,-0.0883,-0.0873,-0.0856,-0.086,-0.0858,-0.085,-0.0855,-0.0859,-0.0803,-0.0802,-0.0802,0,0,-0.0872,-0.0917,-0.0923,-0.0939,-0.0997,-0.0998,-0.1026,-0.1024,-0.1027,-0.0986,-0.0996,-0.1,-0.0915,-0.0919,-0.0913,-0.0909,-0.0899,-0.0911,-0.0943,-0.0937,-0.0941,-0.0944,-0.0975,-0.0981,-0.0915,-0.0916,-0.0916,0,-0.0824,-0.088,-0.091,-0.0929,-0.0963,-0.1013,-0.1037,-0.1012,-0.0989,-0.0998,-0.1004,-0.0947,-0.093,-0.0937,-0.0957,-0.0923,-0.0925,-0.0922,-0.0944,-0.0947,-0.0949,-0.098,-0.0985,-0.0918,-0.0918,-0.0918,-0.0918,0,-0.0807,-0.0852,-0.0866,-0.0925,-0.0931,-0.097,-0.1007,-0.1001,-0.1026,-0.1012,-0.1021,-0.0982,-0.0968,-0.0972,-0.0961,-0.0983,-0.0984,-0.0951,-0.093,-0.0958,-0.0989,-0.0994,-0.0923,-0.0922,-0.0921,-0.092,0,0,-0.0726,-0.0832,-0.0843,-0.0905,-0.096,-0.0982,-0.0995,-0.1028,-0.1062,-0.1025,-0.1046,-0.1028,-0.103,-0.1024,-0.1019,-0.1018,-0.1056,-0.0999,-0.0997,-0.1034,-0.1072,-0.1123,-0.1133,-0.1023,-0.1024,-0.1024,-0.1098,0,-0.0724,-0.0788,-0.0825,-0.0893,-0.0958,-0.1006,-0.1009,-0.1037,-0.1055,-0.1058,-0.1068,-0.1067,-0.1045,-0.1062,-0.1056,-0.105,-0.1065,-0.1041,-0.1034,-0.1035,-0.108,-0.1139,-0.0926,-0.0978,-0.1103,-0.1103,-0.1104,0,-0.0711,-0.078,-0.0848,-0.0965,-0.0994,-0.1006,-0.1089,-0.1095,-0.1114,-0.1126,-0.1132,-0.1124,-0.1137,-0.1107,-0.1111,-0.1096,-0.1095,-0.1086,-0.1087,-0.1114,-0.1094,-0.0962,-0.0981,-0.1111,-0.1111,-0.111,-0.1109,0,-0.07,-0.0802,-0.0876,-0.091,-0.101,-0.1046,-0.1086,-0.1118,-0.1143,-0.117,-0.119,-0.1186,-0.1205,-0.1177,-0.1176,-0.1141,-0.1185,-0.1129,-0.1179,-0.1184,-0.0991,-0.0979,-0.1135,-0.1135,-0.1135,-0.1135,-0.1135,0,-0.0704,-0.0771,-0.0885,-0.0932,-0.1018,-0.1071,-0.1131,-0.1165,-0.1199,-0.1227,-0.1227,-0.1248,-0.1221,-0.1239,-0.1208,-0.1234,-0.1214,-0.1207,-0.1207,-0.1012,-0.1001,-0.1091,-0.1085,-0.1138,-0.1137,-0.1137,-0.1136,0,-0.0689,-0.0754,-0.0861,-0.0986,-0.1019,-0.1081,-0.1161,-0.1188,-0.1232,-0.1271,-0.1282,-0.131,-0.1345,-0.1341,-0.1331,-0.1305,-0.13,-0.1315,-0.1122,-0.1099,-0.1294,-0.129,-0.1365,-0.1368,-0.137,-0.1372,-0.1373,0,-0.0695,-0.0741,-0.0892,-0.0939,-0.0998,-0.1086,-0.112,-0.1188,-0.1211,-0.1299,-0.1307,-0.1383,-0.14,-0.1444,-0.1407,-0.1403,-0.14,-0.1225,-0.112,-0.1326,-0.1318,-0.1311,-0.1304,-0.0889,-0.0886,-0.0884,-0.0883,0,-0.0714,-0.0756,-0.0845,-0.0929,-0.0989,-0.1059,-0.1123,-0.1135,-0.1204,-0.1275,-0.1332,-0.1363,-0.142,-0.1323,-0.1365,-0.1312,-0.1205,-0.1189,-0.1422,-0.0892,-0.089,-0.0879,-0.0884,-0.0864,-0.0865,-0.0867,-0.0868,-0.0869,-0.0716,-0.0775,-0.0853,-0.0933,-0.0992,-0.1012,-0.1011,-0.1082,-0.1136,-0.1187,-0.1263,-0.1243,-0.1201,-0.1152,-0.1138,-0.1119,-0.1206,-0.1058,-0.1058,-0.1061,-0.102,-0.1025,-0.1018,-0.1021,-0.1023,-0.1025,-0.1027,0,-0.0762,-0.0806,-0.0843,-0.0894,-0.09,-0.0959,-0.0996,-0.098,-0.1034,-0.1079,-0.1139,-0.0934,-0.0871,-0.086,-0.0804,-0.0845,-0.0762,-0.0788,-0.0615,-0.0633,-0.065,-0.0583,-0.0467,-0.0467,-0.0466,-0.0465,0,0,-0.0776,-0.0813,-0.0823,-0.081,-0.0819,-0.0816,-0.0828,-0.0825,-0.085,-0.0848,-0.0795,-0.0799,-0.0777,-0.0588,-0.0585,-0.0528,-0.0579,-0.0493,-0.0924,-0.0735,-0.0751,-0.0774,-0.0689,0,0,0,0,0]},{"header":{"parameterUnit":"m.s-1","parameterCategory":2,"la1":30.2991,"la2":30.254,"lo1":-89.0895,"lo2":-89.0444,"dx":0.0017,"dy":0.0017,"nx":28,"ny":28,"refTime":"2022-11-07T03:00:00:Z","depth":"2","parameterNumber":3,"parameterNumberName":"V-component_of_CURRENTS"},"data":[0,0,0,0,0,0,0,0,0,0,0,0,0,0,0,0,0,0,0,0,0,0,0,0,0,0,0,0,0,0,0,0,0,0,0,0,0,0,0,0,0,0,0,0,0,0,0,0,0,0,0,0,0,0,0,0,0,0,-0.0307,-0.0306,0,-0.0249,-0.0248,-0.0247,-0.0231,-0.0232,-0.0232,-0.0233,-0.016,-0.0158,-0.0155,0,0,0,0,0,0,0,0,0,0,0,0,0,-0.0353,-0.0352,-0.0307,-0.0306,-0.0305,-0.0249,-0.0248,-0.0247,-0.0231,-0.0232,-0.0232,-0.0233,-0.0161,-0.0158,-0.0155,0,0,0,0,0,0,0,0,0,0,0,0,0,-0.0317,-0.0352,-0.0307,-0.0292,-0.029,-0.0249,-0.0248,-0.0247,-0.0231,-0.0232,-0.0233,-0.0233,-0.0162,-0.0158,-0.0155,-0.012,0,0,-0.0144,-0.0142,0,0,0,0,0,0,0,0,-0.0319,-0.0315,-0.0294,-0.0293,-0.029,-0.0249,-0.0238,-0.0204,-0.0231,-0.0252,-0.0233,-0.0234,-0.0189,-0.0183,-0.0169,-0.0116,-0.0113,-0.0144,-0.0141,-0.014,-0.0139,0,0,0,0,0,0,0,-0.0321,-0.0317,-0.0283,-0.0294,-0.0291,-0.027,-0.0266,-0.0231,-0.0216,-0.025,-0.0249,-0.0245,-0.0187,-0.0173,-0.0167,-0.0112,-0.0144,-0.0141,-0.0138,-0.0137,-0.0041,-0.004,0,0,0,0,0,0,-0.0333,-0.0319,-0.0284,-0.0281,-0.0308,-0.0269,-0.0265,-0.0261,-0.0217,-0.0211,-0.0244,-0.0244,-0.0178,-0.0171,-0.0165,-0.0124,-0.014,-0.0137,-0.0135,-0.0041,-0.0041,-0.004,0,0,0,0,0,0,-0.0334,-0.033,-0.0287,-0.03,-0.0293,-0.0268,-0.0264,-0.0259,-0.025,-0.0213,-0.0207,-0.0241,-0.0178,-0.017,-0.0138,-0.0121,-0.0135,-0.0132,-0.0042,-0.0041,-0.0041,-0.004,0,0,0,0,0,0,-0.0335,-0.0331,-0.0335,-0.0301,-0.0293,-0.0261,-0.0263,-0.0258,-0.0246,-0.0246,-0.0207,-0.0201,-0.0178,-0.0143,-0.0134,-0.0116,-0.0129,-0.0042,-0.0042,-0.0041,-0.0041,-0.004,-0.0039,0,0,0,0,0,-0.0337,-0.0332,-0.0335,-0.0331,-0.0298,-0.026,-0.0253,-0.0238,-0.0246,-0.0234,-0.0215,-0.0202,-0.0132,-0.014,-0.013,-0.011,-0.0043,-0.0042,-0.0041,-0.0041,-0.004,-0.0039,0,0,0,0,0,0,-0.0355,-0.0329,-0.0332,-0.0321,-0.0295,-0.0258,-0.025,-0.024,-0.0216,-0.0224,-0.0193,-0.0184,-0.0152,-0.0132,-0.0142,-0.0082,-0.0086,-0.0083,-0.009,-0.0089,-0.0088,-0.0063,-0.0126,0,0,0,0,0,-0.0363,-0.0351,-0.0324,-0.0315,-0.0308,-0.0283,-0.0269,-0.0258,-0.0232,-0.0223,-0.0192,-0.0166,-0.0137,-0.0116,-0.0088,-0.0049,-0.0028,-0.0032,-0.0031,-0.003,-0.0004,0.0043,0.0051,-0.0037,-0.0037,-0.0037,0,0,-0.0368,-0.0352,-0.0347,-0.0318,-0.0303,-0.0268,-0.0276,-0.0257,-0.022,-0.0217,-0.0166,-0.0161,-0.0128,-0.009,-0.0073,-0.0071,-0.0002,-0.0029,-0.0029,-0.0002,0.0045,0.0054,0.0062,-0.0036,-0.0037,-0.0037,0,0,-0.0356,-0.0361,-0.0343,-0.0319,-0.0296,-0.0271,-0.0267,-0.0233,-0.0215,-0.0173,-0.0166,-0.0143,-0.0097,-0.006,-0.004,-0.0012,-0.0003,-0.0021,0.0015,0.0059,0.0068,0.0075,0.0079,0.0087,-0.0015,-0.0015,-0.0015,0,-0.0364,-0.034,-0.033,-0.03,-0.028,-0.027,-0.0238,-0.0206,-0.0161,-0.0137,-0.0158,-0.0086,-0.007,-0.0004,-0.0006,-0.0004,-0.0001,0.0005,0.0062,0.007,0.0078,0.0081,0.009,-0.0015,-0.0015,-0.0015,-0.0015,0,-0.0331,-0.0313,-0.0302,-0.0257,-0.0228,-0.0207,-0.0164,-0.0133,-0.0123,-0.009,-0.0042,-0.0023,0.002,0.002,0.0014,0.0076,0.005,0.0051,0.006,0.0087,0.0087,0.0097,-0.0014,-0.0014,-0.0014,-0.0015,0,0,-0.035,-0.029,-0.0291,-0.0268,-0.0212,-0.0188,-0.0121,-0.006,-0.0024,0.0011,0.0063,0.0101,0.0091,0.0114,0.0107,0.0144,0.0176,0.0113,0.0115,0.0118,0.0238,0.0222,0.023,0.0177,0.0179,0.0181,0.0203,0,-0.0333,-0.0285,-0.0246,-0.0193,-0.0169,-0.0125,-0.0062,-0.0005,0.0032,0.0087,0.0117,0.015,0.0134,0.0125,0.0169,0.017,0.0206,0.0169,0.0211,0.0213,0.0198,0.0243,0.0229,0.0249,0.0212,0.0214,0.0215,0,-0.032,-0.029,-0.0248,-0.0175,-0.0161,-0.0118,-0.0041,0.0017,0.0106,0.0129,0.0181,0.0195,0.0249,0.0218,0.0284,0.025,0.0252,0.0259,0.026,0.0263,0.0216,0.0224,0.0268,0.0231,0.0229,0.0228,0.0227,0,-0.0361,-0.029,-0.0265,-0.0242,-0.0155,-0.0123,-0.0073,0.0019,0.0059,0.0144,0.016,0.0244,0.0245,0.0299,0.0292,0.0287,0.0346,0.0348,0.0348,0.0344,0.0356,0.0351,0.0421,0.0421,0.042,0.042,0.042,0,-0.0366,-0.0342,-0.0291,-0.0278,-0.024,-0.0165,-0.0111,-0.0046,0.0035,0.0075,0.0156,0.0183,0.0262,0.0294,0.0314,0.0346,0.0367,0.0377,0.0369,0.035,0.0344,0.0353,0.0345,0.0421,0.0421,0.0421,0.0421,0,-0.0409,-0.0376,-0.0348,-0.0283,-0.0261,-0.0244,-0.0156,-0.0119,-0.0039,0.0011,0.0026,0.0128,0.0174,0.0239,0.0307,0.0351,0.0397,0.0399,0.0347,0.0335,0.0361,0.0353,0.0444,0.0444,0.0444,0.0444,0.0444,0,-0.0421,-0.0418,-0.0383,-0.038,-0.0354,-0.0312,-0.028,-0.018,-0.0145,-0.0035,-0.0028,0.0046,0.0101,0.0204,0.0295,0.037,0.036,0.0397,0.0423,0.0391,0.0374,0.0365,0.0357,0.0416,0.0416,0.0416,0.0416,0,-0.0451,-0.0457,-0.0446,-0.0451,-0.0436,-0.0402,-0.0353,-0.0332,-0.0226,-0.017,-0.0105,-0.0044,0.0079,0.0192,0.0298,0.0333,0.0396,0.0397,0.0401,0.041,0.0368,0.0349,0.0342,0.0415,0.0415,0.0415,0.0415,0.0415,-0.0488,-0.051,-0.052,-0.0528,-0.051,-0.0499,-0.0481,-0.042,-0.0365,-0.0243,-0.0172,-0.0036,0.0096,0.0279,0.0312,0.0357,0.0391,0.0422,0.0422,0.0423,0.0414,0.0374,0.0417,0.0418,0.0418,0.0418,0.0418,0,-0.0533,-0.057,-0.0585,-0.0594,-0.0601,-0.0568,-0.0533,-0.0507,-0.0458,-0.0279,-0.0168,-0.001,0.0151,0.0245,0.0337,0.0403,0.0389,0.038,0.037,0.0372,0.0374,0.0362,0.0352,0.0352,0.0352,0.0351,0,0,-0.0556,-0.0609,-0.0633,-0.0688,-0.0685,-0.0696,-0.0688,-0.0618,-0.0501,-0.0331,-0.0161,0.0087,0.0204,0.0262,0.0317,0.0333,0.0322,0.0311,0.0365,0.0349,0.0349,0.0408,0.0393,0,0,0,0,0]}],[{"header":{"parameterUnit":"m.s-1","parameterCategory":2,"la1":30.2991,"la2":30.254,"lo1":-89.0895,"lo2":-89.0444,"dx":0.0017,"dy":0.0017,"nx":28,"ny":28,"refTime":"2022-11-07T03:00:00:Z","depth":"4","parameterNumber":2,"parameterNumberName":"U-component_of_CURRENTS"},"data":[0,0,0,0,0,0,0,0,0,0,0,0,0,0,0,0,0,0,0,0,0,0,0,0,0,0,0,0,0,0,0,0,0,0,0,0,0,0,0,0,0,0,0,0,0,0,0,0,0,0,0,0,0,0,0,0,0,0,-0.0271,-0.0271,0,-0.0285,-0.0285,-0.0285,-0.0299,-0.0299,-0.0299,-0.0299,-0.0396,-0.0398,-0.0401,0,0,0,0,0,0,0,0,0,0,0,0,0,-0.0298,-0.0297,-0.0271,-0.0271,-0.0271,-0.0284,-0.0285,-0.0285,-0.0299,-0.0299,-0.0299,-0.0299,-0.0395,-0.0398,-0.0401,0,0,0,0,0,0,0,0,0,0,0,0,0,-0.0298,-0.0297,-0.0271,-0.0278,-0.0279,-0.0284,-0.0285,-0.0285,-0.0299,-0.0299,-0.0299,-0.0299,-0.0394,-0.0397,-0.0401,-0.0423,0,0,-0.0413,-0.0414,0,0,0,0,0,0,0,0,-0.0298,-0.0297,-0.0277,-0.0278,-0.0279,-0.0289,-0.0329,-0.0335,-0.0299,-0.0293,-0.0299,-0.0299,-0.0366,-0.0372,-0.0376,-0.0428,-0.0432,-0.0413,-0.0415,-0.0417,-0.0418,0,0,0,0,0,0,0,-0.0298,-0.0297,-0.0278,-0.0277,-0.0278,-0.0295,-0.0295,-0.0331,-0.0332,-0.0294,-0.0295,-0.0293,-0.0368,-0.0372,-0.0379,-0.0433,-0.0413,-0.0416,-0.0419,-0.042,-0.0586,-0.0588,0,0,0,0,0,0,-0.029,-0.0296,-0.0278,-0.0278,-0.0287,-0.0294,-0.0294,-0.0287,-0.033,-0.0336,-0.0293,-0.0294,-0.0366,-0.0374,-0.0382,-0.0459,-0.0417,-0.0421,-0.0423,-0.0584,-0.0586,-0.0589,0,0,0,0,0,0,-0.0291,-0.0288,-0.0277,-0.0287,-0.0286,-0.0293,-0.0285,-0.0287,-0.0297,-0.0328,-0.0336,-0.0301,-0.0366,-0.0377,-0.0432,-0.0461,-0.0422,-0.0426,-0.0581,-0.0585,-0.0588,-0.0583,0,0,0,0,0,0,-0.0291,-0.0288,-0.0286,-0.0286,-0.0285,-0.0285,-0.0285,-0.0287,-0.0295,-0.0296,-0.0338,-0.0346,-0.0367,-0.0426,-0.0435,-0.0466,-0.0429,-0.0579,-0.0583,-0.0587,-0.058,-0.0586,-0.059,0,0,0,0,0,-0.0292,-0.0289,-0.0286,-0.0284,-0.028,-0.0285,-0.0286,-0.0293,-0.0295,-0.0302,-0.0339,-0.0345,-0.0459,-0.043,-0.0441,-0.0473,-0.0577,-0.0582,-0.0586,-0.0578,-0.0585,-0.059,0,0,0,0,0,0,-0.0298,-0.029,-0.0287,-0.028,-0.0283,-0.0286,-0.0291,-0.0296,-0.0327,-0.0333,-0.0365,-0.0377,-0.0439,-0.0462,-0.0429,-0.0537,-0.0522,-0.0529,-0.0513,-0.0519,-0.0524,-0.0464,-0.0432,0,0,0,0,0,-0.0297,-0.0293,-0.0289,-0.0285,-0.0284,-0.0289,-0.0292,-0.0296,-0.0319,-0.0331,-0.0363,-0.0411,-0.0467,-0.0494,-0.0539,-0.0591,-0.0575,-0.0625,-0.063,-0.0633,-0.0596,-0.0605,-0.0606,-0.0605,-0.0604,-0.0604,0,0,-0.0299,-0.0292,-0.0291,-0.0286,-0.0287,-0.0295,-0.0292,-0.0296,-0.0311,-0.034,-0.0379,-0.0426,-0.0485,-0.0547,-0.0578,-0.0569,-0.0632,-0.0639,-0.0642,-0.0601,-0.061,-0.061,-0.0609,-0.0608,-0.0607,-0.0607,0,0,-0.0296,-0.0292,-0.0287,-0.0293,-0.0293,-0.0301,-0.0303,-0.0312,-0.0324,-0.0362,-0.0401,-0.044,-0.0529,-0.056,-0.0594,-0.0648,-0.0656,-0.0704,-0.0677,-0.0688,-0.0687,-0.0685,-0.0675,-0.0673,-0.0706,-0.0706,-0.0706,0,-0.0296,-0.0289,-0.0289,-0.029,-0.03,-0.0305,-0.0314,-0.0326,-0.0356,-0.0373,-0.0376,-0.0485,-0.0518,-0.0592,-0.0612,-0.065,-0.0666,-0.0647,-0.0689,-0.0687,-0.0685,-0.0675,-0.0672,-0.0706,-0.0706,-0.0706,-0.0706,0,-0.0293,-0.0292,-0.0291,-0.0297,-0.0313,-0.0319,-0.0337,-0.0357,-0.0373,-0.0386,-0.0446,-0.0484,-0.0542,-0.058,-0.0608,-0.0646,-0.0665,-0.069,-0.0659,-0.0684,-0.0674,-0.0671,-0.0707,-0.0707,-0.0707,-0.0707,0,0,-0.0273,-0.0285,-0.0285,-0.0295,-0.0318,-0.0331,-0.0362,-0.0388,-0.0412,-0.0431,-0.0461,-0.0522,-0.0531,-0.0567,-0.0617,-0.0616,-0.0612,-0.0651,-0.0651,-0.0612,-0.0641,-0.0613,-0.0607,-0.0668,-0.0667,-0.0666,-0.0641,0,-0.0266,-0.0267,-0.0287,-0.0312,-0.0315,-0.0351,-0.0386,-0.0417,-0.044,-0.0472,-0.0487,-0.0538,-0.0538,-0.0577,-0.0573,-0.0618,-0.0605,-0.0616,-0.0645,-0.0644,-0.0593,-0.0602,-0.0664,-0.0638,-0.0638,-0.0637,-0.0637,0,-0.0252,-0.0254,-0.0263,-0.0317,-0.0327,-0.0356,-0.0415,-0.0449,-0.0491,-0.0509,-0.0532,-0.0557,-0.0568,-0.0562,-0.0573,-0.0598,-0.06,-0.0608,-0.0609,-0.0568,-0.061,-0.061,-0.0631,-0.0631,-0.0632,-0.0632,-0.0632,0,-0.0219,-0.0249,-0.0256,-0.0269,-0.0322,-0.0353,-0.04,-0.0453,-0.0488,-0.0529,-0.0547,-0.057,-0.0581,-0.0584,-0.058,-0.0596,-0.0581,-0.0609,-0.0572,-0.057,-0.0601,-0.0603,-0.0583,-0.0583,-0.0583,-0.0583,-0.0583,0,-0.0199,-0.0209,-0.0242,-0.0241,-0.0283,-0.0339,-0.0398,-0.0439,-0.05,-0.0535,-0.0561,-0.0572,-0.0589,-0.0589,-0.0584,-0.0558,-0.058,-0.0539,-0.0556,-0.0606,-0.0609,-0.0599,-0.0601,-0.0582,-0.0582,-0.0582,-0.0582,0,-0.0152,-0.017,-0.0175,-0.0226,-0.0256,-0.0284,-0.0396,-0.0442,-0.0494,-0.0537,-0.0549,-0.0574,-0.0564,-0.057,-0.0569,-0.0555,-0.0543,-0.0528,-0.0559,-0.0584,-0.0521,-0.0524,-0.0474,-0.0473,-0.0472,-0.0471,-0.047,0,-0.0127,-0.0115,-0.0145,-0.0165,-0.019,-0.0258,-0.0319,-0.0417,-0.0461,-0.0525,-0.0534,-0.0542,-0.0549,-0.0506,-0.052,-0.0501,-0.0498,-0.0494,-0.0501,-0.0484,-0.0507,-0.0511,-0.0516,-0.0468,-0.0468,-0.0468,-0.0467,0,-0.007,-0.0068,-0.007,-0.0097,-0.0152,-0.0236,-0.0324,-0.0357,-0.0462,-0.05,-0.0501,-0.0499,-0.0482,-0.0467,-0.046,-0.0449,-0.0503,-0.0482,-0.0485,-0.0491,-0.0477,-0.0501,-0.0507,-0.0464,-0.0464,-0.0465,-0.0465,0,-0.002,-0.0008,-0.0004,-0.0042,-0.0109,-0.0201,-0.0266,-0.0336,-0.0395,-0.0466,-0.0452,-0.0457,-0.0465,-0.0439,-0.0431,-0.0421,-0.0413,-0.0414,-0.042,-0.0425,-0.0423,-0.0399,-0.0353,0,0,0,0,0,0.0039,0.0039,0.0026,-0.0026,-0.0095,-0.0156,-0.0266,-0.0335,-0.0421,-0.0407,-0.0436,-0.0416,-0.0401,-0.0397,-0.0373,-0.0414,-0.0422,-0.0389,-0.0428,-0.0442,-0.0447,-0.0451,0,0,0,0,0,0,0.0069,0.0076,0.0058,-0.0005,-0.0059,-0.0164,-0.0244,-0.0315,-0.0317,-0.0372,-0.0352,-0.0384,-0.036,-0.0387,-0.0353,-0.0357,-0.0377,-0.0393,-0.0392,-0.044,-0.0444,-0.0447,-0.0453,0,0,0,0,0]},{"header":{"parameterUnit":"m.s-1","parameterCategory":2,"la1":30.2991,"la2":30.254,"lo1":-89.0895,"lo2":-89.0444,"dx":0.0017,"dy":0.0017,"nx":28,"ny":28,"refTime":"2022-11-07T03:00:00:Z","depth":"4","parameterNumber":3,"parameterNumberName":"V-component_of_CURRENTS"},"data":[0,0,0,0,0,0,0,0,0,0,0,0,0,0,0,0,0,0,0,0,0,0,0,0,0,0,0,0,0,0,0,0,0,0,0,0,0,0,0,0,0,0,0,0,0,0,0,0,0,0,0,0,0,0,0,0,0,0,-0.0275,-0.0275,0,-0.0297,-0.0298,-0.0298,-0.0288,-0.0288,-0.0287,-0.0287,-0.0301,-0.0302,-0.0303,0,0,0,0,0,0,0,0,0,0,0,0,0,-0.0216,-0.0218,-0.0275,-0.0275,-0.0276,-0.0297,-0.0298,-0.0298,-0.0288,-0.0288,-0.0287,-0.0287,-0.0301,-0.0302,-0.0303,0,0,0,0,0,0,0,0,0,0,0,0,0,-0.024,-0.0218,-0.0275,-0.0274,-0.0274,-0.0297,-0.0298,-0.0298,-0.0289,-0.0288,-0.0287,-0.0287,-0.0301,-0.0302,-0.0303,-0.0324,0,0,-0.0307,-0.0307,0,0,0,0,0,0,0,0,-0.0239,-0.0242,-0.0274,-0.0274,-0.0275,-0.029,-0.0282,-0.0307,-0.0289,-0.0282,-0.0287,-0.0286,-0.0298,-0.0299,-0.0304,-0.0325,-0.0326,-0.0307,-0.0308,-0.0308,-0.0308,0,0,0,0,0,0,0,-0.0237,-0.0241,-0.0283,-0.0274,-0.0275,-0.027,-0.0273,-0.0287,-0.0293,-0.0283,-0.0282,-0.0286,-0.0298,-0.0303,-0.0304,-0.0326,-0.0307,-0.0308,-0.0309,-0.0309,-0.0346,-0.0346,0,0,0,0,0,0,-0.0237,-0.024,-0.0282,-0.0284,-0.0255,-0.0272,-0.0275,-0.0285,-0.0293,-0.0294,-0.0287,-0.0286,-0.0301,-0.0303,-0.0305,-0.0311,-0.0308,-0.0309,-0.031,-0.0346,-0.0346,-0.0346,0,0,0,0,0,0,-0.0236,-0.0241,-0.0281,-0.0262,-0.0267,-0.0274,-0.0285,-0.0286,-0.0293,-0.0296,-0.0297,-0.0294,-0.0301,-0.0303,-0.0323,-0.0312,-0.031,-0.0311,-0.0346,-0.0346,-0.0346,-0.0337,0,0,0,0,0,0,-0.0235,-0.0241,-0.0253,-0.0263,-0.0268,-0.0298,-0.0286,-0.0287,-0.0297,-0.0296,-0.0302,-0.0303,-0.03,-0.0321,-0.0324,-0.0314,-0.0312,-0.0345,-0.0346,-0.0346,-0.0337,-0.0337,-0.0337,0,0,0,0,0,-0.0232,-0.025,-0.0253,-0.0259,-0.0283,-0.0298,-0.0301,-0.0302,-0.0298,-0.0305,-0.0311,-0.0303,-0.0325,-0.0323,-0.0326,-0.0316,-0.0345,-0.0346,-0.0346,-0.0337,-0.0337,-0.0337,0,0,0,0,0,0,-0.0229,-0.0251,-0.0255,-0.0278,-0.0289,-0.0297,-0.0308,-0.0308,-0.0319,-0.0318,-0.0317,-0.0319,-0.0329,-0.0332,-0.0329,-0.0329,-0.033,-0.0331,-0.0322,-0.0322,-0.0322,-0.0324,-0.0313,0,0,0,0,0,-0.0236,-0.0256,-0.027,-0.0289,-0.0296,-0.0303,-0.0311,-0.0312,-0.0321,-0.0325,-0.0331,-0.0334,-0.0335,-0.0336,-0.0344,-0.0353,-0.0333,-0.0346,-0.0346,-0.0346,-0.035,-0.0306,-0.0302,-0.0348,-0.0348,-0.0348,0,0,-0.0238,-0.0255,-0.0265,-0.029,-0.0299,-0.0313,-0.0306,-0.032,-0.0327,-0.0326,-0.0344,-0.0342,-0.034,-0.0344,-0.0347,-0.0344,-0.0323,-0.0346,-0.0346,-0.0351,-0.0306,-0.0302,-0.0297,-0.0349,-0.0349,-0.0349,0,0,-0.0251,-0.0269,-0.0289,-0.0303,-0.0322,-0.0324,-0.033,-0.0343,-0.0345,-0.0364,-0.0354,-0.0353,-0.0368,-0.0354,-0.035,-0.0359,-0.0328,-0.0354,-0.0351,-0.0308,-0.0304,-0.0299,-0.0265,-0.0258,-0.0349,-0.0349,-0.0349,0,-0.0251,-0.0283,-0.0295,-0.0318,-0.0329,-0.033,-0.0347,-0.0351,-0.0368,-0.0366,-0.0371,-0.0369,-0.0371,-0.0353,-0.0353,-0.0358,-0.0328,-0.0348,-0.0306,-0.0302,-0.0297,-0.0263,-0.0255,-0.0348,-0.0348,-0.0348,-0.0348,0,-0.0276,-0.0305,-0.0318,-0.0346,-0.0357,-0.0374,-0.0379,-0.0387,-0.0389,-0.0386,-0.0381,-0.0381,-0.0373,-0.0366,-0.0365,-0.0331,-0.0318,-0.0312,-0.0301,-0.0292,-0.0257,-0.0249,-0.0348,-0.0348,-0.0348,-0.0348,0,0,-0.0266,-0.0324,-0.0329,-0.0351,-0.0375,-0.0385,-0.0394,-0.0397,-0.0392,-0.0399,-0.0388,-0.0385,-0.0372,-0.0367,-0.0352,-0.0318,-0.0264,-0.0301,-0.0299,-0.026,-0.0165,-0.0137,-0.0125,-0.0239,-0.0237,-0.0236,-0.0151,0,-0.0282,-0.0332,-0.035,-0.0387,-0.0413,-0.0415,-0.042,-0.0418,-0.0412,-0.0403,-0.0383,-0.0373,-0.0373,-0.0361,-0.0327,-0.0286,-0.0243,-0.0288,-0.0188,-0.0185,-0.0154,-0.0115,-0.0232,-0.0145,-0.0143,-0.0142,-0.0141,0,-0.0296,-0.0334,-0.0376,-0.0415,-0.0422,-0.0435,-0.0433,-0.0437,-0.0415,-0.0407,-0.0385,-0.0368,-0.0333,-0.0329,-0.0247,-0.0271,-0.0219,-0.0182,-0.0178,-0.0151,-0.0141,-0.0159,-0.0126,-0.0127,-0.0128,-0.0129,-0.013,0,-0.0288,-0.0346,-0.0381,-0.0398,-0.0437,-0.0444,-0.045,-0.0437,-0.0429,-0.0402,-0.0385,-0.0347,-0.0322,-0.0259,-0.0199,-0.0212,-0.0097,-0.0104,-0.0027,-0.0025,-0.0081,-0.0086,-0.0027,-0.0027,-0.0027,-0.0027,-0.0027,0,-0.0299,-0.033,-0.0385,-0.0409,-0.0436,-0.045,-0.0454,-0.0451,-0.0429,-0.0404,-0.0384,-0.035,-0.0299,-0.0234,-0.0181,-0.0078,-0.0078,-0.0017,0.0006,-0.008,-0.0087,-0.0074,-0.0081,-0.0024,-0.0025,-0.0025,-0.0026,0,-0.0289,-0.0328,-0.0376,-0.0426,-0.0441,-0.0456,-0.0468,-0.0464,-0.0439,-0.0403,-0.0392,-0.0341,-0.026,-0.02,-0.0095,-0.0047,0.0042,0.0083,-0.0013,0.0001,0.0078,0.0071,0.0175,0.0177,0.0178,0.0179,0.0181,0,-0.0288,-0.0316,-0.0385,-0.0413,-0.0441,-0.0466,-0.0478,-0.0473,-0.0458,-0.0388,-0.0366,-0.0288,-0.0246,-0.0077,-0.0026,0.0088,0.0103,0.0154,0.0112,0.0091,0.0103,0.0093,0.0083,0.0183,0.0183,0.0184,0.0184,0,-0.0286,-0.0312,-0.0352,-0.0412,-0.0446,-0.0479,-0.049,-0.0474,-0.044,-0.0418,-0.0311,-0.0225,-0.0132,-0.0048,0.0044,0.0121,0.0119,0.0171,0.0168,0.0128,0.0102,0.011,0.0099,0.019,0.0189,0.0189,0.0188,0,-0.0271,-0.0302,-0.0354,-0.0406,-0.0453,-0.048,-0.0486,-0.0452,-0.0428,-0.0339,-0.0301,-0.0199,-0.0145,-0.0027,0.0056,0.0132,0.0143,0.0171,0.0168,0.0162,0.0124,0.0087,0.0204,0,0,0,0,0,-0.0246,-0.0288,-0.0343,-0.0408,-0.0455,-0.0487,-0.049,-0.0483,-0.044,-0.0354,-0.0318,-0.0222,-0.0074,-0.0025,0.0058,0.0053,0.0128,0.0153,0.0151,0.022,0.0214,0.0173,0,0,0,0,0,0,-0.0231,-0.028,-0.0337,-0.04,-0.0445,-0.0493,-0.05,-0.0473,-0.0417,-0.0354,-0.0284,-0.0203,-0.0086,-0.0132,0.0054,0.0076,0.0091,0.022,0.0222,0.0224,0.0218,0.0213,0.0168,0,0,0,0,0]}]]